Content
SEND FEEDBACK

Daily
Averages
Monthly
Summary
United States of America

SOUTH LAKE TAHOE - AIRPORT, CALIFORNIA


Home > North America > United States > California
Elevation: 6250 feet     Latitude: 38 54N     Longitude: 120 00W

WEATHER
 
SELECT A DAY
Number of Records: 174,516;   Date Range: 1/1/95 - 8/28/14
 
SHARE

PRINT THIS DATA

[ ← Previous Day ]
WEATHER ALMANAC - APRIL 1, 2013
[ Next Day → ]
[ °C ]   °F
Weather ElementAverageHighLow
Temperature38.8 °F46.9 °F (3:53 pm)30.9 °F (11:53 pm)
Dewpoint30.1 °F32 °F (2:27 am)27 °F (11:53 pm)
Humidity72.1 %85 % (5:53 am)50 % (2:53 pm)
Barometer30.08 in30.14 in (11:35 am)29.98 in (1:53 am)
Wind Speed5.1 mph13.8 mph (4:53 pm)
Wind Gust19.6 mph (1:53 pm)
Weather ElementAverage
Visibility8 mi
Wind DirectionSE (131.9 °)

Weather ElementTotal
Precipitation0.07 in
Heating Degree Days26.1 (Base 65)
Averaged from 37 records on April 1, 2013
WEATHER CONDITIONS BREAKOUT
WIND DIRECTION BREAKOUT
WEATHER BY HOUR - APRIL 1, 2013
[ °C ]   °F
Local TimeTemperatureDewpointHumidityBarometerVisibilityWind DirectionWind SpeedGust SpeedPrecipitationEventsConditions
1:53 AM37.0 °F30.9 °F79 %29.98 in10.0 miSouth (180°)3.5 mph0.00 inOvercast
2:27 AM37.4 °F32.0 °F81 %30.05 in7.0 miSouth (190°)4.6 mph0.00 inSnowLight Snow
2:36 AM35.6 °F30.2 °F81 %30.05 in2.5 miCalm0.01 inSnowLight Snow
2:45 AM35.6 °F30.2 °F81 %30.05 in1.5 miCalm0.02 inSnowLight Snow
2:50 AM35.6 °F30.2 °F81 %30.05 in3.0 miCalm0.02 inSnowLight Snow
3:12 AM35.6 °F30.2 °F81 %30.05 in10.0 miSouth (190°)3.5 mph0.00 inOvercast
3:53 AM36.0 °F30.9 °F82 %30.01 in8.0 miSouth (190°)6.9 mph0.00 inSnowLight Snow
5:17 AM35.6 °F30.2 °F81 %30.06 in4.0 miCalm0.00 inSnowLight Snow
5:26 AM35.6 °F30.2 °F81 %30.06 in6.0 miSouth (180°)3.5 mph0.00 inSnowLight Snow
5:30 AM35.6 °F30.2 °F81 %30.06 in4.0 miSouth (190°)3.5 mph0.00 inSnowLight Snow
5:35 AM35.6 °F30.2 °F81 %30.06 in1.8 miSouth (190°)3.5 mph0.00 inSnowLight Snow
5:43 AM35.6 °F30.2 °F81 %30.06 in3.0 miSSE (160°)3.5 mph0.00 inSnowLight Snow
5:53 AM35.1 °F30.9 °F85 %30.04 in8.0 miCalm0.00 inOvercast
6:07 AM35.6 °F30.2 °F81 %30.07 in4.0 miCalm0.00 inSnowLight Snow
6:17 AM35.6 °F30.2 °F81 %30.07 in5.0 miSouth (180°)3.5 mph0.01 inSnowLight Snow
6:53 AM34.0 °F30.0 °F85 %30.04 in10.0 miSW (230°)3.5 mph0.01 inMostly Cloudy
7:53 AM36.0 °F30.9 °F82 %30.06 in10.0 miSouth (190°)4.6 mphMostly Cloudy
8:53 AM37.9 °F30.0 °F73 %30.09 in10.0 miSouth (190°)6.9 mphScattered Clouds
9:53 AM39.9 °F30.0 °F68 %30.09 in10.0 miSouth (190°)9.2 mphOvercast
10:22 AM41.0 °F30.2 °F65 %30.12 in10.0 miSouth (190°)9.2 mphMostly Cloudy
10:32 AM41.0 °F30.2 °F65 %30.12 in10.0 miSouth (180°)6.9 mphMostly Cloudy
10:53 AM42.1 °F30.9 °F65 %30.09 in10.0 miVariable6.9 mphMostly Cloudy
11:11 AM44.6 °F30.2 °F57 %30.13 in10.0 miSouth (180°)11.5 mphOvercast
11:35 AM44.6 °F28.4 °F53 %30.14 in10.0 miSSW (200°)12.7 mphMostly Cloudy
11:53 AM42.1 °F30.9 °F65 %30.10 in10.0 miSouth (170°)6.9 mphMostly Cloudy
12:53 PM44.1 °F30.0 °F58 %30.09 in10.0 miSouth (190°)9.2 mphOvercast
1:53 PM46.0 °F28.9 °F51 %30.07 in10.0 miSouth (180°)11.5 mph19.6 mphMostly Cloudy
2:53 PM46.0 °F28.0 °F50 %30.07 in10.0 miSSW (200°)8.1 mphOvercast
3:53 PM46.9 °F30.0 °F52 %30.06 in10.0 miSSW (210°)9.2 mph17.3 mphScattered Clouds
4:53 PM46.9 °F30.0 °F52 %30.06 in10.0 miSouth (180°)13.8 mphClear
5:53 PM46.9 °F28.9 °F50 %30.06 in10.0 miSouth (180°)10.4 mphMostly Cloudy
6:53 PM43.0 °F32.0 °F65 %30.09 in10.0 miSouth (190°)9.2 mphPartly Cloudy
7:53 PM39.9 °F30.9 °F70 %30.12 in10.0 miCalmMostly Cloudy
8:53 PM37.9 °F30.9 °F76 %30.13 in10.0 miCalmMostly Cloudy
9:53 PM35.1 °F30.0 °F82 %30.14 in10.0 miSouth (180°)3.5 mphPartly Cloudy
10:53 PM33.1 °F28.0 °F82 %30.14 in10.0 miCalmScattered Clouds
11:53 PM30.9 °F27.0 °F85 %30.14 in10.0 miCalmClear
Hourly data recorded from KTVL, located miles away from South Lake Tahoe - Airport, California







STORIES FROM OUR PARTNERS